CAPE
0 0 0 0 0 0 0 0 0 0 0 0 0 0 0 0 0 0 0 0 0 0 0 0 0 0 0 0 0 0 0 7 88 39 5 55 69 44 177 128 100 94 26 268 466
0 0 0 0 0 0 0 0 0 0 0 0 0 0 0 0 0 0 0 0 0 0 0 0 0 0 0 0 0 0 0 0 0 42 108 101 51 54 72 229 94 237 177 241 543
0 0 0 0 0 0 0 0 0 0 0 0 0 0 0 0 0 0 0 0 0 0 0 0 0 0 0 0 0 0 3 2 2 1 53 77 4 42 246 135 311 326 251 386 523
0 0 0 0 0 0 0 0 0 0 0 0 0 0 0 0 0 0 0 0 0 0 0 0 0 0 3 4 0 0 0 0 4 12 52 12 63 69 143 190 211 225 295 438 596
0 0 0 0 0 0 0 0 0 0 0 0 0 0 0 0 0 0 0 0 0 0 0 0 0 0 14 0 0 5 4 17 23 10 91 71 168 103 213 255 431 376 468 592 1038
0 0 0 0 0 0 0 0 0 0 0 0 0 0 0 0 0 0 0 0 0 0 0 0 0 0 0 0 0 0 66 83 105 100 98 26 366 356 464 486 603 647 808 1294 1517
0 0 0 0 0 0 0 0 0 0 0 0 0 0 0 0 0 0 0 0 0 0 0 0 0 0 0 0 0 14 0 3 145 109 75 21 0 594 674 743 771 1010 1171 1189 1180
0 0 0 0 0 0 0 0 0 0 0 0 0 0 0 0 0 0 0 0 0 0 0 0 0 0 0 0 0 0 0 12 13 1 80 9 161 651 622 565 625 745 875 1203 1202
0 0 0 0 0 0 0 0 0 0 0 0 0 0 0 0 0 0 0 0 0 0 0 0 0 0 0 0 0 0 44 73 5 28 149 308 638 668 619 561 853 1147 1307 1384 1606
0 0 0 0 0 0 0 0 0 0 0 0 0 0 0 0 0 0 0 0 0 0 0 0 0 0 0 0 0 0 17 18 10 91 199 370 558 542 375 470 553 1018 1291 1555 1582
0 0 0 0 0 0 0 0 0 0 0 0 0 0 0 0 0 0 0 0 0 0 0 0 0 0 0 0 0 0 8 18 2 37 164 326 454 374 382 418 690 918 1227 1446 1183
0 0 0 0 0 0 0 0 0 0 0 0 0 0 0 0 0 0 0 0 0 0 1 0 5 0 0 0 0 5 24 16 24 38 198 253 292 293 320 477 656 717 965 1164 1123
0 0 0 0 0 0 0 0 0 0 0 0 0 0 0 0 0 0 0 0 0 10 0 0 0 0 0 7 3 1 3 1 84 25 139 75 50 110 354 452 597 777 899 964 809
0 0 0 0 0 0 0 0 0 0 0 0 0 0 0 0 0 0 0 0 0 2 0 28 0 0 2 8 0 3 0 0 0 35 5 94 89 1 196 408 590 679 718 515 255
0 0 0 0 0 0 0 0 0 0 0 0 0 0 0 0 0 0 0 0 0 0 0 15 0 0 14 0 0 0 0 1 28 36 38 0 4 11 79 333 407 402 335 243 130
0 0 0 0 0 0 0 0 0 0 0 0 0 0 0 0 0 0 0 0 0 0 0 9 3 0 0 0 0 0 76 156 87 106 34 25 164 107 0 322 350 339 287 172 84
0 0 0 0 0 0 0 0 0 0 0 0 0 0 0 0 0 0 0 0 0 0 15 0 12 0 0 16 43 46 70 118 83 212 49 131 56 362 207 254 370 366 296 157 61
0 0 0 0 0 0 0 0 0 0 0 0 0 0 0 0 0 0 0 0 0 0 7 16 6 9 0 0 1 0 13 78 66 19 14 11 46 356 268 379 288 287 287 142 27
0 0 0 0 0 0 0 0 0 0 0 0 0 0 0 0 0 0 0 0 0 0 22 47 39 0 0 0 0 0 92 51 7 36 88 106 176 189 335 335 239 266 237 116 42
0 0 0 0 0 0 0 0 0 0 0 0 0 0 0 0 0 0 0 0 0 0 14 22 35 0 0 0 37 0 0 0 111 94 6 37 240 136 333 380 296 283 247 134 52
0 0 0 0 0 0 0 0 0 0 0 0 0 0 0 0 0 0 0 0 0 0 1 12 0 14 0 46 0 11 123 14 24 243 30 47 291 118 343 427 311 320 127 161 40
0 0 0 0 0 0 0 0 0 0 0 0 0 0 0 0 0 0 0 0 0 0 0 44 14 23 48 1 0 0 0 0 0 37 69 39 273 238 271 402 345 226 112 121 43
0 0 0 0 0 0 0 0 0 0 0 0 0 0 0 0 0 0 0 9 0 0 27 0 1 2 68 84 16 0 0 0 0 129 105 109 337 279 276 305 274 136 99 81 22
0 0 0 0 0 0 0 0 0 0 0 0 0 8 0 0 0 0 0 0 5 92 17 62 49 1 7 0 0 0 0 0 3 84 103 178 253 385 314 324 286 179 74 57 0
0 0 0 0 0 0 0 0 0 0 0 0 13 2 0 0 0 0 0 0 19 1 40 154 0 1 0 0 0 0 0 1 1 1 8 79 53 329 449 367 363 232 94 55 2
0 6 0 0 0 0 0 0 0 0 0 0 17 0 0 2 0 0 2 0 3 34 64 450 31 7 2 0 0 0 0 0 0 0 16 38 346 275 276 330 333 154 83 69 0
0 0 0 0 0 0 0 0 0 4 1 5 109 34 40 130 167 119 16 46 55 75 144 38 132 25 28 44 0 1 10 0 0 3 36 99 241 147 134 190 181 130 97 23 0
CIN
0 0 0 0 0 0 0 0 0 0 0 0 0 0 0 0 0 0 0 0 0 0 0 0 0 0 0 0 0 0 0 -43 -9 -21 -8 -83 -10 -49 -9 -11 -9 -31 -37 -13 -38
0 0 0 0 0 0 0 0 0 0 0 0 0 0 0 0 0 0 0 0 0 0 0 0 0 0 0 0 0 0 0 0 0 -6 -11 -4 -29 -18 -69 -55 -97 -4 -23 -40 -34
0 0 0 0 0 0 0 0 0 0 0 0 0 0 0 0 0 0 0 0 0 0 0 0 0 0 0 0 0 0 -15 -6 -6 -27 -13 -11 -2 -22 -19 -41 -2 -19 -21 -30 -24
0 0 0 0 0 0 0 0 0 0 0 0 0 0 0 0 0 0 0 0 0 0 0 0 0 0 -8 -10 0 -2 0 0 -30 -23 -7 -53 -38 -12 -12 -10 -8 -4 -20 -6 -1
0 0 0 0 0 0 0 0 0 0 0 0 0 0 0 0 0 0 0 0 0 0 0 0 0 0 -15 -2 0 -3 -2 -22 -20 -16 -3 -5 -3 -4 -19 -12 -4 -12 -12 -3 -2
0 0 0 0 0 0 0 0 0 0 0 0 0 0 0 0 0 0 0 0 0 0 0 0 0 0 0 -1 0 0 -4 -5 -3 -7 -3 -73 -21 -18 -17 -11 -16 -7 -4 -8 -12
0 0 0 0 0 0 0 0 0 0 0 0 0 0 0 0 0 0 0 0 0 0 0 0 0 0 0 0 0 -3 -1 -3 -3 -3 -4 -59 -5 -12 -21 -7 -5 -1 -34 -29 -8
0 0 0 0 0 0 0 0 0 0 0 0 0 0 0 0 0 0 0 0 0 0 0 0 0 0 0 0 0 -14 0 -42 -31 -23 -65 -25 -99 -2 -4 -25 -21 -31 -81 -45 -11
0 0 0 0 0 0 0 0 0 0 0 0 0 0 0 0 0 0 0 0 0 0 0 0 0 0 0 -3 0 0 -18 -16 -44 -15 -34 -43 -3 -3 -13 -3 -3 -13 -26 -24 -6
0 0 0 0 0 0 0 0 0 0 0 0 0 0 0 0 0 0 0 0 0 0 0 0 0 0 0 0 0 -26 -39 -45 -5 -5 -7 -3 -9 -10 -3 -5 -3 -2 -2 -3 -2
0 0 0 0 0 0 0 0 0 0 0 0 0 0 0 0 0 0 0 0 0 0 0 0 -6 0 0 0 0 0 -4 -6 -8 -19 -3 -2 -2 -7 -9 -4 -4 -4 -3 -1 -5
0 0 0 0 0 0 0 0 0 0 0 0 0 0 0 0 0 0 0 0 0 0 -3 0 -18 0 0 0 0 -4 -11 -49 -30 -30 -3 -3 -4 -7 -6 -10 -3 -3 -3 -3 -3
0 0 0 0 0 0 0 0 0 0 0 0 0 0 0 0 0 0 0 0 0 -8 0 0 0 0 0 -6 -16 -10 -3 -1 -5 -25 -7 -51 -71 -18 -4 -3 -9 -2 -3 -3 -4
0 0 0 0 0 0 0 0 0 0 0 0 0 0 0 0 0 0 0 0 0 -8 0 -8 0 0 -12 -8 0 -1 0 0 -5 -24 -82 -18 -10 -220 -3 -3 -2 -2 -2 -4 -30
0 0 0 0 0 0 0 0 0 0 0 0 0 0 0 0 0 0 0 0 0 0 0 -4 0 -1 -26 0 0 0 0 -1 -7 -22 -43 0 -60 -97 -137 -2 -2 -15 -32 -39 -65
0 0 0 0 0 0 0 0 0 0 0 0 0 0 0 0 0 0 0 0 0 0 0 -7 -5 0 0 0 0 0 -4 -8 -80 -21 -36 -131 -39 -66 0 -7 -6 -2 -32 -48 -38
0 0 0 0 0 0 0 0 0 0 0 0 0 0 0 0 0 0 0 0 0 0 -5 -1 -5 0 0 -4 -22 -10 -18 -9 -59 -13 -131 -5 -8 -6 -28 -37 -14 -7 -13 -38 -26
0 0 0 0 0 0 0 0 0 0 0 0 0 0 0 0 0 0 0 0 0 0 -20 -13 -22 -3 0 0 -1 0 -20 -9 -7 -6 -11 -38 -54 -38 -56 -57 -61 -55 -47 -49 -56
0 0 0 0 0 0 0 0 0 0 0 0 0 0 0 0 0 0 0 0 0 0 -15 -8 -4 0 0 0 0 0 -5 -36 -6 -27 -22 -39 -19 -41 -31 -47 -51 -35 -41 -49 -67
0 0 0 0 0 0 0 0 0 0 0 0 0 0 0 0 0 0 0 0 0 0 -12 -5 -7 -2 0 0 -32 0 0 0 -9 -3 -19 -59 -54 -91 -3 -7 -14 -16 -10 -26 -59
0 0 0 0 0 0 0 0 0 0 0 0 0 0 0 0 0 0 0 0 0 0 -3 -6 0 -10 0 -9 0 -4 -10 -45 -24 -6 -10 -8 -5 -42 -3 -6 -18 -1 -19 -7 -49
0 0 0 0 0 0 0 0 0 0 0 0 0 0 0 0 0 0 0 0 0 0 0 -4 -1 -6 -19 -1 0 0 0 0 0 -12 -8 -12 -14 -22 -12 -4 -21 -17 -32 -20 -63
0 0 0 0 0 0 0 0 0 0 0 0 0 0 0 0 0 0 0 -60 0 0 -7 0 -1 -2 -16 -12 -56 0 0 0 -18 -22 -62 -4 -10 -15 -44 -29 -25 -17 -40 -44 -75
0 0 0 0 0 0 0 0 0 0 0 0 0 -132 0 0 0 0 0 0 -15 -21 -79 -24 -2 -8 -14 0 0 0 0 0 -39 -16 -12 -14 -6 -12 -12 -8 -3 -21 -52 -8 -2
0 0 0 0 0 0 0 0 0 0 0 0 -106 -58 0 0 0 0 0 0 -55 -6 -38 -8 0 -2 0 0 0 -1 0 -1 -1 -3 -44 -5 -4 -3 -5 -4 -2 -12 -34 -25 -11
0 -3 0 0 0 0 0 0 0 0 0 0 -66 0 0 -86 0 0 -3 0 -5 -50 -19 -18 -5 -1 -1 -1 0 0 0 0 0 0 -28 -2 -10 -2 -5 -4 -6 -7 -38 -34 0
0 0 0 0 0 0 0 0 0 -85 -22 -29 -47 -6 -6 -5 -8 -9 -4 -4 -4 -20 -15 -21 -8 -8 -3 -10 0 -5 -8 0 0 -12 -25 -3 -10 -12 -4 -4 -2 -19 -43 -95 0
Wind_Speed
23 23 23 23 22 21 20 21 21 19 17 16 15 15 15 16 15 18 21 17 20 23 24 23 21 17 16 14 14 13 13 10 22 24 13 25 22 21 19 24 22 23 23 25 24
24 24 23 23 23 23 22 22 23 20 18 17 16 15 15 15 14 19 19 16 18 25 25 24 20 19 16 15 14 12 16 18 13 10 20 14 19 19 11 25 11 18 25 26 24
25 24 24 24 23 23 22 23 23 21 19 18 17 16 15 14 15 12 15 19 22 26 22 22 18 19 15 15 14 12 14 9 17 15 9 17 13 22 24 12 26 18 22 22 21
26 25 25 25 24 24 23 24 23 22 20 19 18 17 16 16 16 10 15 20 24 26 22 22 20 18 14 16 14 12 12 9 17 17 14 15 19 20 25 26 25 22 20 19 18
26 26 26 26 25 24 24 24 23 23 20 19 18 16 13 17 5 11 15 17 27 27 23 21 19 16 14 17 16 14 16 15 16 15 13 10 18 22 25 23 21 21 20 19 19
26 27 27 27 26 25 24 23 23 23 21 19 18 17 15 16 12 13 21 29 29 27 23 21 14 15 14 15 13 16 12 18 18 15 18 23 30 24 23 20 19 21 20 21 20
26 27 27 27 26 25 23 23 23 22 21 19 18 16 18 15 16 15 27 28 28 25 22 20 17 16 15 16 15 17 12 13 22 17 16 23 25 25 20 19 20 21 21 21 20
26 27 27 26 26 25 24 22 22 21 21 19 18 17 17 15 18 24 28 27 28 25 20 18 18 15 16 15 16 17 12 17 22 12 26 24 12 22 23 25 21 21 20 21 20
26 26 26 26 25 24 24 22 21 21 19 19 17 16 8 14 23 26 27 23 23 23 20 18 17 17 15 15 18 17 20 20 10 24 18 23 23 21 22 23 22 22 23 22 21
25 25 25 25 24 23 24 23 20 20 9 19 21 15 20 7 5 22 27 22 24 21 19 19 19 14 16 14 12 12 19 14 22 24 20 20 20 19 20 23 23 23 23 24 24
25 25 24 23 23 22 22 18 17 16 9 17 5 17 7 14 22 27 24 24 23 22 20 17 15 17 15 17 19 19 18 17 18 16 18 18 19 19 20 22 23 23 24 24 26
24 24 24 23 22 21 20 18 17 17 16 16 21 20 16 19 23 22 25 22 22 21 18 17 13 16 15 17 6 13 22 18 16 14 15 17 17 18 20 22 23 23 24 23 23
25 24 23 22 21 19 19 18 17 17 17 9 14 13 3 25 24 21 25 23 22 21 19 6 13 15 12 14 18 11 20 16 12 11 15 20 14 10 20 23 23 23 22 23 25
25 23 22 20 18 16 16 15 18 16 17 10 8 12 7 25 17 13 27 22 21 19 17 14 12 11 16 10 19 16 23 7 10 11 5 13 9 14 18 22 22 22 23 24 25
24 22 21 20 20 16 14 17 16 13 18 5 3 5 2 26 6 17 23 23 22 12 19 11 12 15 11 17 24 24 13 7 9 10 7 3 7 12 12 17 21 23 22 23 25
23 21 16 20 21 21 18 18 15 17 17 10 7 8 10 33 11 12 18 26 19 16 17 8 13 16 15 17 16 7 8 14 20 19 9 6 6 11 16 15 19 21 21 21 23
21 17 16 21 15 16 17 17 13 22 12 11 8 5 7 14 10 2 19 19 14 15 14 12 13 13 12 6 21 7 9 5 10 10 3 14 10 19 15 19 19 19 20 21 22
20 15 21 26 20 18 19 16 22 16 9 10 10 9 10 12 18 19 19 16 22 22 14 14 13 12 14 17 15 14 7 5 12 10 2 20 12 12 15 17 18 18 19 20 24
19 17 22 21 22 19 20 18 17 13 12 10 13 12 14 14 18 15 13 16 16 22 16 10 11 12 16 19 4 16 9 22 3 11 6 11 16 19 13 17 17 18 19 21 23
21 19 18 17 17 19 21 23 15 14 15 19 13 14 14 16 21 5 11 13 3 21 18 6 11 11 15 8 13 14 16 7 8 8 4 14 20 14 10 13 16 17 18 20 22
19 19 14 17 17 21 20 16 14 11 14 13 18 18 21 12 26 19 2 7 15 5 25 11 9 13 10 13 23 8 13 13 9 10 10 11 18 20 14 12 14 16 18 19 20
21 20 14 15 17 22 21 16 15 14 14 16 22 20 21 15 25 18 14 15 13 6 11 7 9 11 14 16 17 15 15 13 11 15 15 11 13 17 17 15 14 15 16 19 22
20 18 14 20 19 18 25 17 17 16 12 7 19 21 17 16 18 16 14 14 13 13 5 8 9 11 11 13 14 12 16 16 15 10 19 12 13 13 16 15 14 15 17 15 19
21 18 14 21 29 24 18 20 18 15 17 11 16 18 18 21 17 19 13 14 10 13 17 9 11 18 19 21 19 12 12 14 15 12 20 19 18 15 14 14 14 15 14 15 18
19 19 16 21 25 21 17 17 17 16 17 16 13 19 23 25 19 17 9 8 10 10 9 7 9 17 17 19 14 14 11 14 14 16 14 23 15 18 13 12 12 13 13 14 16
19 20 16 21 23 21 18 19 20 15 17 16 18 19 26 26 19 20 15 12 11 12 3 7 9 16 14 14 15 10 11 11 14 15 13 14 20 17 17 14 13 11 13 14 17
18 20 21 21 21 22 17 20 18 16 14 15 17 19 17 14 13 17 16 15 14 8 6 4 9 10 17 14 15 5 6 13 13 13 17 15 20 16 15 14 12 12 13 16 16
Wind_Direction
293 290 281 278 275 269 266 271 276 269 264 263 264 266 267 270 258 161 151 198 208 191 191 170 160 168 179 180 182 186 170 107 40 59 162 71 69 68 86 71 46 50 51 75 88
294 285 280 278 272 272 269 272 280 270 265 265 265 265 265 270 212 170 173 230 217 190 179 162 157 168 175 172 189 201 45 11 326 297 34 76 64 78 69 50 130 29 68 81 90
292 281 282 277 270 269 265 271 279 272 265 266 266 263 262 256 181 64 233 217 203 189 191 183 192 192 185 164 187 226 321 278 24 329 233 82 6 54 27 89 29 80 64 75 83
297 286 281 277 272 270 265 274 274 273 265 265 266 263 261 182 108 294 238 216 203 194 191 167 167 158 160 146 178 183 316 213 30 58 111 36 34 17 12 9 20 30 56 69 73
294 292 281 279 272 266 263 269 271 272 263 263 264 262 237 152 97 269 233 226 187 169 173 156 161 171 184 131 153 167 121 102 96 98 79 36 15 24 17 20 32 41 61 64 47
292 292 295 285 282 270 260 261 268 268 260 258 260 259 173 162 261 244 206 151 158 166 171 177 202 214 192 164 179 153 168 66 94 54 32 41 13 1 23 27 41 48 38 33 43
287 290 289 284 284 270 255 256 263 259 255 252 253 246 184 212 228 227 173 151 163 169 156 187 209 180 164 136 151 128 349 279 68 56 47 15 326 25 15 28 40 48 44 26 52
289 290 285 281 278 280 258 254 253 249 248 243 245 221 213 248 217 180 168 147 172 185 194 205 201 176 189 205 146 66 69 103 37 62 55 42 107 60 59 59 53 55 50 47 48
290 288 288 286 282 274 259 254 243 239 224 237 242 202 335 235 161 142 140 125 134 163 170 187 180 182 137 83 278 250 47 32 322 19 28 56 62 62 42 41 46 57 51 55 54
284 287 287 287 282 276 264 260 259 243 285 241 227 255 173 69 305 171 147 168 140 138 152 167 173 161 212 8 103 201 21 9 1 20 40 40 54 47 39 42 43 49 50 47 37
284 286 283 286 286 279 274 286 285 296 319 271 46 262 323 251 192 154 135 142 159 151 156 156 165 205 299 312 313 338 2 36 42 48 46 41 50 47 48 54 50 47 40 42 37
286 282 281 280 285 286 281 282 295 291 285 285 250 250 253 223 135 128 139 136 142 154 162 158 146 352 310 299 161 100 351 290 58 74 76 65 46 59 62 54 51 50 49 41 43
290 283 279 279 281 282 278 289 290 288 269 309 275 268 294 198 139 124 145 158 155 172 164 169 312 14 87 142 12 239 327 34 74 90 122 63 49 105 69 65 61 55 48 38 22
293 285 276 279 287 289 285 282 279 276 274 279 289 268 265 211 219 113 171 188 163 160 151 245 11 97 163 63 293 38 310 121 92 138 131 104 80 15 47 58 58 46 41 37 33
293 284 280 263 272 275 290 275 273 271 266 287 279 312 169 174 80 132 222 189 165 104 182 53 100 143 65 348 322 324 235 140 103 161 46 148 59 17 357 63 52 41 38 38 35
300 284 290 264 258 258 262 262 257 263 268 273 284 263 254 191 257 112 140 193 241 143 158 51 293 279 343 4 23 145 115 33 307 246 35 150 82 40 46 38 41 35 36 38 30
307 293 281 257 274 270 267 250 262 256 282 270 257 254 242 244 253 87 144 149 126 126 100 95 87 34 56 148 324 153 220 70 45 88 219 36 55 32 48 32 34 32 31 36 29
307 299 265 242 262 259 256 254 252 273 282 285 261 259 251 246 246 164 143 140 164 169 109 121 79 62 35 316 260 242 188 186 251 257 260 39 1 49 52 46 40 35 32 33 19
304 293 258 252 248 254 250 254 265 274 290 278 258 250 254 255 246 225 139 142 140 158 169 78 67 15 5 359 11 304 64 330 164 216 189 43 57 33 45 46 45 38 33 28 21
285 275 260 254 250 248 250 256 279 280 282 259 256 249 250 247 244 217 134 200 13 254 253 10 44 42 30 104 41 47 0 126 124 70 101 42 26 35 62 53 42 33 32 30 24
275 263 267 249 243 245 250 267 278 292 283 269 247 249 248 251 234 242 194 299 275 100 224 351 43 42 63 43 343 89 74 67 97 72 49 34 39 27 48 62 48 35 30 30 27
263 256 264 240 245 245 249 271 276 284 276 262 247 246 250 254 234 247 266 275 269 94 121 3 39 52 42 22 28 44 49 62 66 39 40 40 30 35 43 54 47 38 34 28 19
257 266 261 239 246 249 248 271 267 273 286 279 248 246 260 250 251 255 273 278 271 137 334 63 61 140 42 27 45 89 38 46 46 57 20 26 30 49 46 50 50 44 35 41 30
262 257 257 246 247 257 250 258 260 275 275 285 259 256 252 246 261 257 279 274 278 274 261 309 355 259 339 346 353 41 49 46 42 40 14 22 29 38 51 53 50 49 50 54 43
259 261 256 245 247 253 256 256 259 272 270 266 271 250 241 241 253 262 278 280 277 281 309 28 94 304 333 342 20 23 43 31 28 23 30 7 33 35 53 53 53 53 64 66 52
267 268 259 263 248 250 259 255 254 266 267 263 265 250 242 242 257 257 264 266 279 270 358 355 359 324 350 2 12 28 32 40 39 36 41 35 19 35 36 49 48 61 62 61 45
279 268 257 255 249 248 251 254 256 270 275 274 273 245 248 259 270 277 260 265 277 282 304 55 350 6 243 355 5 98 87 41 44 45 27 32 25 35 41 49 56 63 62 49 54